Coeur d'Alene, ID

12:21 PM PDT on May 22, 2018 (GMT -0700)
Coeur D'Alene

Weather History for KCOE - November, 2013

Change the Weather History Date:

Tuesday, November 12, 2013

  Actual Average Record
Temperature  
Mean Temperature 40 °F -  
Max Temperature 46 °F 42 °F 66 °F (1999)
Min Temperature 35 °F 29 °F 15 °F (2014)
Degree Days  
Heating Degree Days 24    
Moisture  
Dew Point 37 °F    
Average Humidity 83    
Maximum Humidity 93    
Minimum Humidity 76    
Precipitation  
Precipitation 0.00 in - - ()
Sea Level Pressure  
Sea Level Pressure 30.29 in    
Wind  
Wind Speed 10 mph (East)    
Max Wind Speed 18 mph    
Max Gust Speed 18 mph    
Visibility 10 miles    
Events      
Averages and records for this station are not official NWS values.
T = Trace of Precipitation, MM = Missing Value Source: NWS Daily Summary

Daily Weather History Graph

Daily Weather History Graph

Search for Another Location

Airport or City:

Astronomy

Nov. 12, 2013 Rise Set
Actual Time 6:48 AM PST 4:13 PM PST
Civil Twilight 6:15 AM PST 4:46 PM PST
Nautical Twilight 5:38 AM PST 5:24 PM PST
Astronomical Twilight 5:01 AM PST 6:00 PM PST
Moon 1:48 PM PST (11/12) 1:22 AM PST (11/12)
Length of Visible Light 10h 31m
Length of Day
9h 24m
Waxing Gibbous, 77% of the Moon is Illuminated
Nov 12
Waxing Gibbous
Nov 17
Full
Nov 25
Last Quarter
Dec 2
New
Dec 9
First Quarter

Hourly Weather History & Observations

Time (PST) Temp. Windchill Dew Point Humidity Pressure Visibility Wind Dir Wind Speed Gust Speed Precip Events Conditions
12:15 AM 39.2 °F 31.2 °F 33.8 °F 81% 30.28 in 10.0 mi NE 13.8 mph - N/A   Clear
12:35 AM 39.2 °F 30.8 °F 33.8 °F 81% 30.28 in 10.0 mi NNE 15.0 mph - N/A   Clear
12:55 AM 39.2 °F 29.8 °F 35.6 °F 87% 30.26 in 10.0 mi NNE 18.4 mph - N/A   Clear
1:15 AM 39.2 °F 30.8 °F 33.8 °F 81% 30.26 in 10.0 mi NE 15.0 mph - N/A   Clear
1:35 AM 39.2 °F 30.8 °F 33.8 °F 81% 30.26 in 10.0 mi NE 15.0 mph 18.4 mph N/A   Clear
1:55 AM 39.2 °F 29.8 °F 33.8 °F 81% 30.26 in 10.0 mi NNE 18.4 mph - N/A   Clear
2:15 AM 39.2 °F 29.8 °F 33.8 °F 81% 30.26 in 10.0 mi NNE 18.4 mph - N/A   Clear
2:35 AM 39.2 °F 29.8 °F 33.8 °F 81% 30.26 in 10.0 mi NNE 18.4 mph - N/A   Clear
2:55 AM 39.2 °F 30.2 °F 33.8 °F 81% 30.26 in 10.0 mi NNE 17.3 mph - N/A   Clear
3:15 AM 39.2 °F 31.2 °F 33.8 °F 81% 30.26 in 10.0 mi NNE 13.8 mph - N/A   Clear
3:35 AM 39.2 °F 30.8 °F 33.8 °F 81% 30.26 in 10.0 mi NNE 15.0 mph - N/A   Clear
3:55 AM 39.2 °F 30.2 °F 33.8 °F 81% 30.26 in 10.0 mi NNE 17.3 mph - N/A   Clear
4:15 AM 39.2 °F 31.6 °F 33.8 °F 81% 30.25 in 10.0 mi NE 12.7 mph - N/A   Clear
4:35 AM 39.2 °F 32.0 °F 33.8 °F 81% 30.25 in 10.0 mi NE 11.5 mph - N/A   Clear
4:55 AM 39.2 °F 31.2 °F 33.8 °F 81% 30.25 in 10.0 mi NNE 13.8 mph - N/A   Clear
5:15 AM 39.2 °F 32.0 °F 33.8 °F 81% 30.25 in 10.0 mi NE 11.5 mph - N/A   Clear
5:35 AM 39.2 °F 32.0 °F 33.8 °F 81% 30.25 in 10.0 mi NE 11.5 mph 17.3 mph N/A   Clear
5:55 AM 39.2 °F 32.5 °F 33.8 °F 81% 30.25 in 10.0 mi NE 10.4 mph - N/A   Clear
6:15 AM 37.4 °F 32.1 °F 32.0 °F 81% 30.25 in 10.0 mi ENE 6.9 mph - N/A   Clear
6:35 AM 37.4 °F 32.1 °F 32.0 °F 81% 30.25 in 10.0 mi ENE 6.9 mph - N/A   Clear
6:55 AM 35.6 °F 29.2 °F 32.0 °F 87% 30.26 in 10.0 mi ENE 8.1 mph - N/A   Clear
7:15 AM 35.6 °F 29.2 °F 32.0 °F 87% 30.27 in 10.0 mi ENE 8.1 mph - N/A   Clear
7:35 AM 37.4 °F 31.4 °F 33.8 °F 87% 30.28 in 10.0 mi NE 8.1 mph - N/A   Clear
7:55 AM 39.2 °F 35.9 °F 35.6 °F 87% 30.30 in 10.0 mi ENE 4.6 mph - N/A   Clear
8:15 AM 39.2 °F 33.6 °F 35.6 °F 87% 30.29 in 10.0 mi East 8.1 mph - N/A   Clear
8:35 AM 39.2 °F 35.9 °F 35.6 °F 87% 30.30 in 10.0 mi ENE 4.6 mph - N/A   Clear
8:55 AM 41.0 °F 36.4 °F 35.6 °F 81% 30.32 in 10.0 mi East 6.9 mph - N/A   Clear
9:15 AM 42.8 °F 38.0 °F 35.6 °F 76% 30.32 in 10.0 mi East 8.1 mph - N/A   Clear
9:35 AM 41.0 °F 38.0 °F 35.6 °F 81% 30.32 in 10.0 mi ESE 4.6 mph - N/A   Clear
9:55 AM 41.0 °F 37.1 °F 37.4 °F 87% 30.32 in 10.0 mi SSE 5.8 mph - N/A   Clear
10:15 AM 41.0 °F 38.0 °F 37.4 °F 87% 30.33 in 10.0 mi ESE 4.6 mph - N/A   Partly Cloudy
10:35 AM 41.0 °F - 35.6 °F 81% 30.32 in 10.0 mi Calm Calm - N/A   Partly Cloudy
10:55 AM 42.8 °F - 37.4 °F 81% 30.32 in 10.0 mi Calm Calm - N/A   Clear
11:15 AM 44.6 °F 43.1 °F 37.4 °F 76% 30.32 in 10.0 mi SSE 3.5 mph - N/A   Scattered Clouds
11:35 AM 44.6 °F 42.2 °F 37.4 °F 76% 30.32 in 10.0 mi South 4.6 mph - N/A   Partly Cloudy
11:55 AM 44.6 °F 42.2 °F 39.2 °F 81% 30.31 in 10.0 mi East 4.6 mph - N/A   Mostly Cloudy
12:15 PM 44.6 °F 43.1 °F 37.4 °F 76% 30.30 in 10.0 mi East 3.5 mph - N/A   Mostly Cloudy
12:35 PM 44.6 °F 41.4 °F 39.2 °F 81% 30.30 in 10.0 mi East 5.8 mph - N/A   Overcast
12:55 PM 44.6 °F 42.2 °F 39.2 °F 81% 30.30 in 10.0 mi East 4.6 mph - N/A   Overcast
1:15 PM 44.6 °F - 39.2 °F 81% 30.30 in 10.0 mi Calm Calm - N/A   Overcast
1:35 PM 44.6 °F 41.4 °F 41.0 °F 87% 30.30 in 10.0 mi East 5.8 mph - N/A   Overcast
1:55 PM 44.6 °F 42.2 °F 39.2 °F 81% 30.29 in 10.0 mi East 4.6 mph - N/A   Overcast
2:15 PM 44.6 °F 43.1 °F 39.2 °F 81% 30.29 in 10.0 mi East 3.5 mph - N/A   Overcast
2:35 PM 44.6 °F - 41.0 °F 87% 30.29 in 10.0 mi Calm Calm - N/A   Overcast
2:55 PM 44.6 °F 43.1 °F 39.2 °F 81% 30.29 in 10.0 mi East 3.5 mph - N/A   Overcast
3:15 PM 44.6 °F 43.1 °F 39.2 °F 81% 30.29 in 10.0 mi East 3.5 mph - N/A   Overcast
3:35 PM 46.4 °F - 41.0 °F 81% 30.29 in 10.0 mi Calm Calm - N/A   Overcast
3:55 PM 44.6 °F - 39.2 °F 81% 30.28 in 10.0 mi Calm Calm - N/A   Overcast
4:15 PM 44.6 °F 43.1 °F 41.0 °F 87% 30.28 in 10.0 mi ENE 3.5 mph - N/A   Overcast
4:35 PM 44.6 °F - 41.0 °F 87% 30.28 in 10.0 mi Calm Calm - N/A   Overcast
4:55 PM 44.6 °F - 39.2 °F 81% 30.28 in 10.0 mi Calm Calm - N/A   Overcast
5:15 PM 44.6 °F - 39.2 °F 81% 30.28 in 10.0 mi Calm Calm - N/A   Overcast
5:35 PM 44.6 °F - 41.0 °F 87% 30.29 in 10.0 mi Calm Calm - N/A   Overcast
5:55 PM 44.6 °F - 41.0 °F 87% 30.29 in 10.0 mi Calm Calm - N/A   Overcast
6:15 PM 44.6 °F - 39.2 °F 81% 30.30 in 10.0 mi Calm Calm - N/A   Overcast
6:35 PM 42.8 °F - 39.2 °F 87% 30.30 in 10.0 mi Calm Calm - N/A   Overcast
6:55 PM 42.8 °F 41.1 °F 41.0 °F 93% 30.30 in 10.0 mi SW 3.5 mph - N/A   Overcast
7:15 PM 42.8 °F 39.3 °F 39.2 °F 87% 30.31 in 10.0 mi SW 5.8 mph - N/A   Overcast
7:35 PM 42.8 °F 39.3 °F 39.2 °F 87% 30.32 in 10.0 mi South 5.8 mph - N/A   Overcast
7:55 PM 44.6 °F 42.2 °F 41.0 °F 87% 30.32 in 10.0 mi South 4.6 mph - N/A   Overcast
8:15 PM 44.6 °F 41.4 °F 39.2 °F 81% 30.32 in 10.0 mi SSW 5.8 mph - N/A   Overcast
8:35 PM 42.8 °F 40.1 °F 39.2 °F 87% 30.32 in 10.0 mi SSW 4.6 mph - N/A   Overcast
8:55 PM 42.8 °F 40.1 °F 39.2 °F 87% 30.32 in 10.0 mi South 4.6 mph - N/A   Overcast
9:15 PM 42.8 °F 39.3 °F 39.2 °F 87% 30.32 in 10.0 mi South 5.8 mph - N/A   Overcast
9:35 PM 42.8 °F 40.1 °F 39.2 °F 87% 30.32 in 10.0 mi SW 4.6 mph - N/A   Overcast
9:55 PM 42.8 °F 39.3 °F 39.2 °F 87% 30.33 in 10.0 mi WSW 5.8 mph - N/A   Overcast
10:15 PM 42.8 °F 40.1 °F 39.2 °F 87% 30.33 in 10.0 mi WSW 4.6 mph - N/A   Overcast
10:35 PM 42.8 °F 40.1 °F 39.2 °F 87% 30.33 in 10.0 mi WSW 4.6 mph - N/A   Overcast
10:55 PM 42.8 °F 38.6 °F 39.2 °F 87% 30.33 in 10.0 mi WSW 6.9 mph - N/A   Overcast
11:15 PM 42.8 °F 39.3 °F 39.2 °F 87% 30.34 in 10.0 mi WSW 5.8 mph - N/A   Overcast
11:35 PM 42.8 °F 39.3 °F 39.2 °F 87% 30.34 in 10.0 mi SW 5.8 mph - N/A   Overcast
11:55 PM 42.8 °F 38.6 °F 39.2 °F 87% 30.34 in 10.0 mi WSW 6.9 mph - N/A   Overcast